Date,TemperatureHighF,TemperatureAvgF,TemperatureLowF,DewpointHighF,DewpointAvgF,DewpointLowF,HumidityHigh,HumidityAvg,HumidityLow,PressureMaxIn,PressureMinIn,WindSpeedMaxMPH,WindSpeedAvgMPH,GustSpeedMaxMPH,PrecipitationSumIn
2013-2-1,82.0,74.4,67.0,68.0,65.3,61.0,85,74,60,0.00,40.00,9,5,14,0.00
2013-2-2,82.0,74.8,69.0,65.0,62.3,60.0,78,66,54,0.00,40.00,8,5,12,0.00
2013-2-3,80.0,73.7,67.0,65.0,62.8,59.0,80,69,58,0.00,40.00,8,6,14,0.00
2013-2-4,79.0,72.9,67.0,63.0,60.6,56.0,77,66,55,0.00,40.00,8,5,13,0.00
2013-2-5,81.0,72.0,63.0,65.0,60.7,56.0,83,68,51,0.00,40.00,8,5,12,0.00
2013-2-6,81.0,72.3,62.0,66.0,60.4,55.0,83,67,51,0.00,40.00,9,5,11,0.00
2013-2-7,81.0,74.1,67.0,66.0,62.7,59.0,77,68,57,0.00,40.00,8,5,12,0.00
2013-2-8,82.0,74.3,66.0,68.0,63.3,56.0,77,69,61,0.00,40.00,8,5,12,0.00
2013-2-9,82.0,74.6,66.0,66.0,62.3,59.0,79,67,50,0.00,40.00,8,5,13,0.00
2013-2-10,81.0,74.9,67.0,67.0,63.7,58.0,79,69,59,0.00,40.00,9,6,14,0.00
2013-2-11,82.0,73.8,64.0,67.0,62.6,56.0,78,69,54,30.12,30.06,9,5,14,0.00
2013-2-12,80.0,72.5,65.0,65.0,60.9,55.0,78,68,58,30.13,30.04,10,5,14,0.00
2013-2-13,80.0,72.8,64.0,60.0,57.1,51.0,73,59,45,30.08,29.97,8,5,14,0.00
2013-2-14,79.0,71.5,61.0,62.0,58.4,53.0,78,64,52,30.05,29.95,7,4,12,0.00
2013-2-15,81.0,73.4,65.0,65.0,59.6,54.0,74,63,44,30.05,29.95,12,6,19,0.00
2013-2-16,80.0,73.4,65.0,65.0,60.5,54.0,71,64,53,30.06,29.96,9,6,14,0.00
2013-2-17,81.0,74.1,66.0,64.0,61.0,57.0,79,64,54,30.07,29.97,9,6,15,0.00
2013-2-18,80.0,74.3,69.0,64.0,61.5,57.0,75,65,56,30.05,29.96,10,5,16,0.00
2013-2-19,81.0,74.3,67.0,63.0,60.8,57.0,79,64,52,30.07,29.96,11,6,14,0.00
2013-2-20,82.0,73.5,64.0,65.0,60.9,54.0,74,65,53,30.08,29.99,8,5,14,0.00
2013-2-21,81.0,74.3,67.0,66.0,61.8,56.0,73,65,54,30.08,30.00,9,5,13,0.00
2013-2-22,81.0,74.8,71.0,67.0,63.1,57.0,79,68,54,30.07,29.97,9,6,14,0.00
2013-2-23,82.0,74.1,67.0,67.0,63.4,58.0,85,70,55,30.07,29.98,9,6,15,0.30
2013-2-24,81.0,72.8,65.0,66.0,62.6,59.0,84,71,60,30.05,29.95,8,5,13,0.30
2013-2-25,81.0,73.4,64.0,67.0,62.8,60.0,87,70,57,30.08,29.99,10,6,16,0.01
2013-2-26,81.0,72.5,65.0,65.0,60.3,57.0,78,66,54,30.08,30.01,10,6,16,0.01
2013-2-27,82.0,73.9,66.0,65.0,61.4,58.0,78,66,55,30.12,30.03,9,5,13,0.00
2013-2-28,81.0,73.0,65.0,63.0,59.3,55.0,74,63,50,30.13,30.04,8,6,13,0.00